Skip Page Navigation
NASA JPL Caltech
NASA Logo - Jet Propulsion Laboratory + View the NASA Portal
+ Center for Near-Earth Object Studies
JPL Home Earth Solar System Stars & Galaxies Technology
JPL Solar System Dynamics
BODIES ORBITS EPHEMERIDES TOOLS PHYSICAL DATA DISCOVERY FAQ SITE MAP
JPL Small-Body Database Browser
Search: [ help ]  
385651 (2005 RZ14)
Classification: Main-belt Asteroid          SPK-ID: 2385651
Ephemeris | Orbit Diagram | Orbital Elements | Mission Design | Physical Parameters | Discovery Circumstances ]

[ show orbit diagram ]
Orbital Elements at Epoch 2459396.5 (2021-Jul-01.0) TDB
Reference: JPL 15 (heliocentric ecliptic J2000)
 Element Value Uncertainty (1-sigma)   Units 
e .1570282804040319 5.3881e-08  
a 2.377792917084391 1.4e-08 au
q 2.004412184157742 1.2574e-07 au
i 4.345547848443812 4.6115e-06 deg
node 166.1850188658739 9.0457e-05 deg
peri 215.6199771729566 9.2897e-05 deg
M 87.28179524630445 1.9372e-05 deg
tp 2459071.801232521328
(2020-Aug-10.30123252)
7.169e-05 TDB
period 1339.243263299757
3.67
1.1828e-05
3.238e-08
d
yr
n .2688085203527529 2.374e-09 deg/d
Q 2.751173650011039 1.6198e-08 au
  Orbit Determination Parameters
   # obs. used (total)      146  
   data-arc span      5638 days (15.44 yr)  
   first obs. used      2005-09-01  
   last obs. used      2021-02-07  
   planetary ephem.      DE441  
   SB-pert. ephem.      SB441-N16  
   condition code      0  
   norm. resid. RMS      .58816  
   source      ORB  
   producer      Otto Matic  
   solution date      2021-Apr-14 11:06:08  

Additional Information
 Earth MOID = 1.00811 au 
 Jupiter MOID = 2.70892 au 
 T_jup = 3.520 
[ show covariance matrix ]

Ephemeris | Orbit Diagram | Orbital Elements | Mission Design | Physical Parameters | Discovery Circumstances ]

Physical Parameter Table
Parameter Symbol Value Units Sigma Reference Notes
absolute magnitude H 18.18   n/a MPCxxxxx  

385651 (2005 RZ14)          Discovered 2005-Sep-01 by Spacewatch at Kitt Peak
Reference: Last Updated: 2014-02-19

Alternate Designations
 2005 RZ14 = 2009 WW182 
Ephemeris | Orbit Diagram | Orbital Elements | Mission Design | Physical Parameters | Discovery Circumstances ]
ABOUT SSD CREDITS/AWARDS PRIVACY/COPYRIGHT GLOSSARY LINKS
FirstGov 2021-Aug-05 02:54 UT
(server date/time)  
NASA Home Page
Site Manager:   Ryan S. Park
Webmaster  Alan B. Chamberlin